s. 28.11.2005, 20-vuotias (VARL) - rn sks 158cm - holsteiner-tamma
ko he B, re 160cm - kasv. Göran Garass, Saksa
- tämä on virtuaalihevonen

Jokero saapui Kingsvalleyyn eräänlaisena heräteostoksena omistajien ulkomaanmatkalta Saksasta. Törmäsimme kaupungilla Göraniin, joka kertoi tästä nuoresta kyvystä ja pakkohan neitiä oli mennä katsomaan! Jokeron isä on yksi Göranin nk. takuupoteista - Lunardon on jättänyt toistaiseksi kaikkiin jälkeläisiinsä riittävästi hyppykapasiteettia vähintään 120-130cm-luokkiin. Siispä odotamme Jokerostakin hyvää hyppyhevosta.

Jokero on luonteeltaan hieman haastavampaa sorttia - sisukas, kuten sanotaan. Tammalla on sitä temperamenttia, joka tekee huippukilpahevosen. Hoidettaessa Jokero on suhteellisen nätisti, mutta tamman todellinen luonne paljastuu aina toisinaan ja silloin hänelle pitää tehdä selväksi, että hoitajalle ei ryppyillä. Luottoihmistensä kesken Jokero jättää tavallisesti turhat niskojennakkelut väliin, mutta ei kyllä peittele ajoittaista ärtymystään.

Jokero on ihanteellinen ratsu. Tamma nauttii tehtävistään ja on yritteliäs - mikä ei kuitenkaan tarkoita sitä, etteikö tämä olisi haastava. Kun Jokeron omaperäisiin tulkintoihin tottuu, rupeaa yhteistyö sujumaan ja neidin kanssa suoritetaan puhtaasti vaativammatkin radat. Parhaimmillaan Jokero onkin sellaisilla radoilla, jotka usein tuottavat suurimmalle osalle hevosista vaikeuksia, sillä tammalla on suuren hevosen laukka, jota saa muokattua mihin suuntaan vain. Tarvittaessa Jokero laukkaa vaikka paikallaan! Uusintaradoilla neiti on myös varsin näppärä paketti suhteellisen pienen kokonsa ja sukkeluutensa vuoksi.

Kilpailuissa Jokero ei yleensä sen suuremmin jännitä, mikäli ratsastajakaan ei jännää. Radoilla tamma onkin varsin luotettava.





Jokeron suku on hieman tuntemattomampaa holsteinerlinjaa, mikä tekeekin Jokerosta varsin arvokkaan hevosen jalostuskäyttöä ajatellen. Tamman isä Lunardon kilpaili pitkään 160cm-tasolla, kunnes loukkaantui 12-vuotiaana, ja siirtyi jalostusoriksi ja kilpailemaan mielenvirkistykseksi pikkueste- ja helppoja koululuokkia. Ori jätti monia hyviä estehevosia, mutta harmiksemme se ei ehtinyt olla pitkään jalostuskäytössä, kunnes sairastui viruksen pyöriessä kilpatallilla ja jouduttiin lopettamaan kunnon heikettyä radikaalisti. Nyt Lunardonin jälkeläisten hinnat liikkuvat kymmenissä ja jopa sadoissa tuhasissa euroissa.

Jekater, Jokeron emä, oli rakenteeltaan elegantti tamma, joka vieraili kilparadoilla joitakin kertoja 100-120cm -tasoilla, mutta tamman stressatessa kilpailua liikaa, se päätettiin siirtää suoraan jalostuskäyttöön. Jekaterin isä Jokeri oli aikansa huippuperiyttäjä, mikä huomattiin kuitenkin vasta paljon oriin kuoleman jälkeen. Se ehti jättää vain noin 50 jälkeläistä, joista moni kilpaili menestyksekkäästi 150-160cm-esteradoilla.

i. Lunardon ii. Dond'ore iii. Ori
iee. Belladonna
ie. La Flora iei. Falcone
iee. La Perla
e. Jekater
ei. Jokeri eii. Joke
eie. Apple
ee. Mona Lisa
eei. Ranalli
eee. Lisonett


Jalapeno SWA - holsteinertamma rn sks 160cm - s. 21.3.2007 - i. Sentence of Death
King of Disco - holsteinerori m sks 160cm - s. 15.7.2007 - i. B&B Calypso





01/07/2006 - ERJ - Light Dragon - 110cm - 10/40 (1rp)
01/07/2006 - ERJ - Light Dragon - 120cm - 13/40
12/08/2006 - ERJ - Kristallin Suomenhevoset - 130-140cm - 12/30
12/08/2006 - ERJ - Ratsastusseura Salama - 120-130cm - 36/39
12/08/2006 - ERJ - Papanegon Ratsastajat - 120-130cm - 34/43
30/08/2006 - ERJ - Hevosten Paratiisi - 120-130cm - 43/45
31/08/2006 - ERJ - Salvaje - 110-120cm - 5/30 (rp)
03/09/2006 - ERJ - Competir Estapulo - 110-120cm - 11/20
03/09/2006 - ERJ - RaZoRa - 130cm - 24/30
03/09/2006 - ERJ - FSRa - 120-130cm - 38/40
06/09/2006 - ERJ - Huurre - 130-140cm - 18/30
08/09/2006 - ERJ - Stall Hjerte - 100-120cm - 33/37
11/09/2006 - ERJ - Cresendo - 110-120cm - 4/66 (rp)
13/09/2006 - ERJ - Briarfield - 110-130cm - 27/54
15/09/2006 - ERJ - Aavan Suomenhevoset - 120-130cm - 10/69
19/09/2006 - ERJ - Poukama - 120cm - 2/32 (rp)
19/09/2006 - ERJ - Poukama - 130cm - 8/27
19/09/2006 - ERJ - Ninja - 120-130cm - 23/40
20/09/2006 - ERJ - Oriasema Lootus - 120-130cm - 19/35
21/09/2006 - ERJ - RaZoRa - 130cm - 17/28
02/10/2006 - ERJ - Jillian Ponies - 120-140cm - 29/30
03/10/2006 - ERJ - Täydenkuun talli - 120-130cm - 27/46
03/10/2006 - ERJ - Yave - 130cm - 20/48
07/10/2006 - ERJ - Heijastus & Pohjola - 120cm - 53/116
07/10/2006 - ERJ - Greenwich - 120-130cm - 44/50
09/10/2006 - ERJ - KK Siipiäinen - 130cm - 9/55
10/10/2006 - ERJ - Virtuaalitalli Neia - 120-130cm - 41/65
12/10/2006 - ERJ - KK Puhallus - 140cm - 3/30 (rp)
13/10/2006 - ERJ - Dew - 120cm - 29/38
15/10/2006 - ERJ - Harjan-Huiske - 120-130cm - 47/67
16/10/2006 - ERJ - Mikajan Kopukat - 120-130cm - 10/37
21/10/2006 - ERJ - Dew - 120cm - 2/128 (rp)
21/10/2006 - ERJ - Maywill - 120-130cm - 7/50 (rp)
21/10/2006 - ERJ - Dauphine Riders - 120-130cm - 21/30
21/10/2006 - ERJ - Synkmetsä - 120-130cm - 8/47
24/10/2006 - ERJ - Highflyer - 120-130cm - 4/57 (rp)
27/10/2006 - ERJ - Hornet Riders - 120-130cm - 19/25
27/10/2006 - ERJ - PK Sporthorses - 130cm - 1/27 (rp)
29/10/2006 - ERJ - Fatar - 130-140cm - 1/40 (rp)
29/10/2006 - ERJ - KK Icaros - 120-130cm - 18/24
30/10/2006 - ERJ - KK No Life - 120cm - 7/59 (rp)
30/10/2006 - ERJ - Hopeausvan Ratsastajat - 120-130cm - 23/41
05/11/2006 - ERJ - Onnela - 120cm - 3/41 (rp)
05/11/2006 - ERJ - Onnela - 130cm - 12/35
05/11/2006 - ERJ - FSRa - 120-130cm - 5/49 (rp)
07/10/2006 - ERJ - Sarga - 120cm - 37/60
07/10/2006 - ERJ - Sarga - 130cm - 50/60
15/10/2006 - ERJ - Cendarle - 130cm - 15/30
10/11/2006 - ERJ - KK Kimakka - 120-140cm - 39/41
12/11/2006 - ERJ - Kostenlooss - 130cm - 17/50
13/11/2006 - ERJ - Kaviopolun Ratsastajat - 130-140cm - 40/41
14/11/2006 - ERJ - Wormand Warmbloods - 120-140cm - 36/46
14/11/2006 - ERJ - Mtt Nenuphar - 120-140cm - 10/30
15/11/2006 - ERJ - Aavan Suomenhevoset - 130cm - 21/53
18/11/2006 - ERJ - Silver Creek - 130-140cm - 24/30
18/11/2006 - ERJ - Kingston - 130cm - 35/50
26/11/2006 - ERJ - Competio's Charm - 130-140cm - 6/46 (rp)
30/11/2006 - ERJ - KT Zheweran - 120-130cm - 2/26 (rp)
19/12/2006 - ERJ - KK Nolife - 130cm - 10/50
22/12/2006 - ERJ - Wonderfoal - 130cm - 3/41 (rp)
26/12/2006 - ERJ - Gneissi - 130-140cm - 3/40 (rp)
26/12/2006 - ERJ - Seura HUR - 120-130cm - 23/49
28/12/2006 - ERJ - WWC & Kaja - 140cm - 13/35
31/12/2006 - ERJ - Horsecenter Overtale - 130cm - 34/63
31/12/2006 - ERJ - Horsecenter Overtale - 140cm - 27/59
31/12/2006 - ERJ - VHOY - 120cm - 7/12
31/12/2006 - ERJ - VHOY - 130cm - 11/12
31/12/2006 - ERJ - VHOY - 135cm - 3/18 (rp)
01/01/2007 - ERJ - Ruskola - 130cm - 1/41 (rp)
03/01/2007 - ERJ - Stallion Hill - 130cm - 17/70
03/01/2007 - ERJ - Stallion Hill - 140cm - 49/70
21/01/2007 - ERJ - Mikajan Kopukat - 130-140cm - 26/29
26/01/2007 - ERJ - Flyinvalley Stables - 140cm - 29/40
27/01/2007 - ERJ - Kingsvalley - 140cm - 27/30
27/01/2007 - ERJ - ST Neyasa - 120-140cm - 36/106
01/02/2007 - ERJ - Heardland - 120-130cm - 6/60 (rp)
04/02/2007 - ERJ - Vaapukka - 120-140cm - 36/50
05/02/2007 - ERJ - Le Château d'Escaillon - 130-140cm - 28/57
05/02/2007 - ERJ - Kingsvalley - 130-140cm - 4/30 (rp)
05/02/2007 - ERJ - Nonshein - 130cm - 21/46
05/02/2007 - ERJ - Nonshein - 130-140cm - 15/46
12/02/2007 - ERJ - Erlian - 140-150cm - 17/27
12/02/2007 - ERJ - Ninja - 140cm - 3/57 (rp)
20/02/2007 - ERJ - Moon Garden - 120-130cm - 3/35 (rp)
22/02/2007 - ERJ - Chippewa Falls - 120-140cm - 50/50
24/02/2007 - ERJ - Fiktio - 130-150cm - 12/45
28/02/2007 - ERJ - Frequeal - 120-140cm - 19/40
28/02/2007 - ERJ - Itä-Laakso - 140-150cm - 4/46 (rp)
01/03/2007 - ERJ - Flyinvalley Stables - 140cm - 7/37
01/03/2007 - ERJ - Kohlemeise - 120-140cm - 6/30
04/03/2007 - ERJ - Le Château d'Escaillon - 130-140cm - 19/26
11/03/2007 - ERJ - Sairyou Itohisa - 130-150cm - 1/42 (rp)
03/03/2007 - ERJ - Kingsvalley - 140cm - 15/30
05/03/2007 - ERJ - Salattu - 130-140cm - 3/52 (rp)
10/03/2007 - ERJ - Akuro no Oka - 130-150cm - 19/30
17/03/2007 - ERJ - Flyinvalley - 140cm - 14/40
17/03/2007 - ERJ - Miseinen - 130-150cm - 11/34
18/03/2007 - ERJ - Stoneroad - 140cm - 17/30
18/03/2007 - ERJ - Stoneroad - 150cm - 18/29
21/03/2007 - ERJ - Whisper Stud - 150cm - 28/50
25/03/2007 - ERJ - Kisakeskus Arcana - 140cm - 31/40
22/03/2007 - ERJ - Terminaattori - 140cm - 44/50
23/03/2007 - ERJ - BR Team - 150cm - 10/40
25/03/2007 - ERJ - Orilaakso - 130-150cm - 26/80
26/03/2007 - ERJ - Piipari - 120-140cm - 94/135
02/04/2007 - ERJ - Vt Music - 140cm - 1/35 (rp)
03/04/2007 - ERJ - Halifit Ponies - 140cm - 18/55
04/04/2007 - ERJ - Kilpatalli Anio - 150cm - 3/45 (rp)
05/04/2007 - ERJ - Cradless Stables - 140-150cm - 2/41 (rp)
05/04/2007 - ERJ - Juuliantalli - 150cm - 65/65
05/04/2007 - ERJ - Kingston - 150cm - 16/40
05/04/2007 - ERJ - Kingston - 150cm - 23/40
05/04/2007 - ERJ - Kingston - 150cm - 14/40
06/04/2007 - ERJ - Schecke - Ponys - 150cm - 6/43 (rp)
11/04/2007 - ERJ - Sarga - 150cm - 6/26
14/04/2007 - ERJ - Willoughby - 140cm - 30/36
18/04/2007 - ERJ - Brideyard - 150cm - 33/50
20/04/2007 - ERJ - Chillin Monitoimitalli -130-150cm - 7/20
12/05/2007 - ERJ - FSRa - 150cm - 6/47 (rp)
12/05/2007 - ERJ - Dimmalimm - 140-150cm - 1/39 (rp)
01/06/2007 - ERJ - Kingsvalley - 130-140cm - 1/17 (rp)
02/06/2007 - ERJ - Kingsvalley - 150cm - 4/18 (rp)
12/06/2007 - ERJ - KK Yuna - 140cm - 6/49 (rp)
20/06/2007 - ERJ - ERJ-Cup - 150cm - 12/212 (rp)
26/06/2007 - ERJ - FSRa - 140cm - 3/33 (rp)
01/07/2007 - ERJ - Poisonblack - 150cm - 2/30 (rp)
21/07/2007 - ERJ - Blåberry - 150cm - 2/30 (rp)
20/07/2007 - ERJ - ERJ-Cup - 140cm - 4/102 (rp)
06/08/2007 - ERJ - Riimulan ratsutalli - 150cm - 2/30 (rp)
07/08/2007 - ERJ - Riimulan ratsutalli - 150cm - 5/30 (rp)
13/08/2007 - ERJ - Okeanos - 150cm - 8/70 (rp)
15/08/2007 - ERJ - Stall Hjerte - 150cm - 3/67 (rp)
25/08/2007 - ERJ - FSRa - 160cm - 1/20 (rp)
31/08/2007 - ERJ - ERJ-Cup - 150cm - 2/158 (rp)
23/07/2008 - ERJ - Silfran - 70cm - 9/135
/47 sijoitusta




10/07/2006 - KRJ - Kaviopolun Ratsastuskeskus - he C - 56/101
10/07/2006 - KRJ - Kaviopolun Ratsastuskeskus - he B - 132/143

/0 sijoitusta